W8XLR-2 Weather Reports


time (UTC)temp
C
wind
direction
speed
KPH
gust
KPH
rain 1hr
cm
rain 24hr
cm
rain mn
cm
humidity
%
barometer
mb
20260508035648 7 229 1.6 3.2 0.00 0.00 0.00 57 1015.9
20260508034648 7 229 1.6 3.2 0.00 0.00 0.00 57 1015.9
20260508033648 8 232 1.6 3.2 0.00 0.00 0.00 56 1015.8
20260508032816 8 304 1.6 3.2 0.00 0.00 0.00 55 1015.8
20260508032650 8 304 1.6 3.2 0.00 0.00 0.00 55 1015.8
20260508031648 8 304 1.6 3.2 0.00 0.00 0.00 55 1015.8
20260508030650 7 304 0.0 1.6 0.00 0.00 0.00 56 1016.0
20260508025649 7 0 0.0 0.0 0.00 0.00 0.00 57 1016.0
20260508024651 7 0 0.0 0.0 0.00 0.00 0.00 57 1016.0
20260508023649 7 304 0.0 1.6 0.00 0.00 0.00 58 1015.9
20260508022648 7 0 0.0 0.0 0.00 0.00 0.00 57 1015.8
20260508021648 7 0 0.0 0.0 0.00 0.00 0.00 57 1015.8
20260508020734 8 0 0.0 0.0 0.00 0.00 0.00 56 1015.7
20260508020649 8 0 0.0 0.0 0.00 0.00 0.00 56 1015.7
20260508015653 8 0 0.0 0.0 0.00 0.00 0.00 56 1015.8
20260508014720 8 0 0.0 0.0 0.00 0.00 0.00 56 1015.8
20260508014649 8 0 0.0 0.0 0.00 0.00 0.00 56 1015.8
20260508013731 8 0 0.0 0.0 0.00 0.00 0.00 56 1015.7
20260508013649 8 0 0.0 0.0 0.00 0.00 0.00 56 1015.7
20260508012650 9 304 0.0 1.6 0.00 0.00 0.00 53 1015.6
20260508011649 9 304 0.0 1.6 0.00 0.00 0.00 53 1015.6
20260508010651 10 304 0.0 1.6 0.00 0.00 0.00 51 1015.5
20260508005650 10 309 0.0 1.6 0.00 0.00 0.00 49 1015.5
20260508004649 10 309 0.0 1.6 0.00 0.00 0.00 49 1015.5
20260508003648 10 299 1.6 3.2 0.00 0.00 0.00 47 1015.2
20260508002652 11 299 1.6 4.8 0.00 0.00 0.00 46 1015.0
20260508001647 11 299 1.6 4.8 0.00 0.00 0.00 46 1015.0
20260508000652 11 304 3.2 9.7 0.00 0.00 0.00 46 1014.8
20260507235749 11 305 4.8 12.9 0.00 0.00 0.00 46 1014.8
20260507235651 11 305 4.8 12.9 0.00 0.00 0.00 46 1014.8
20260507234648 11 305 4.8 12.9 0.00 0.00 0.00 46 1014.8
20260507233649 11 303 4.8 14.5 0.00 0.00 0.00 48 1014.6
20260507232648 11 299 1.6 8.0 0.00 0.00 0.00 55 1014.5
20260507231845 11 299 1.6 8.0 0.00 0.00 0.00 55 1014.5
20260507231647 11 299 1.6 8.0 0.00 0.00 0.00 55 1014.5
20260507230649 11 300 3.2 8.0 0.00 0.00 0.00 56 1014.5
20260507230008 12 315 3.2 12.9 0.00 0.00 0.00 56 1014.7
20260507225649 12 315 3.2 12.9 0.00 0.00 0.00 56 1014.7
20260507225008 12 315 3.2 12.9 0.00 0.00 0.00 56 1014.7
20260507224649 12 315 3.2 12.9 0.00 0.00 0.00 56 1014.7
20260507223649 12 302 4.8 12.9 0.00 0.00 0.00 53 1014.5
20260507222649 13 316 3.2 9.7 0.00 0.00 0.00 52 1014.4
20260507222005 13 316 3.2 9.7 0.00 0.00 0.00 52 1014.4
20260507221647 13 316 3.2 9.7 0.00 0.00 0.00 52 1014.4
20260507220649 12 317 1.6 9.7 0.00 0.00 0.00 52 1014.2
20260507215744 13 308 3.2 6.4 0.00 0.00 0.00 48 1014.0
20260507215647 13 308 3.2 6.4 0.00 0.00 0.00 48 1014.0
20260507214648 13 308 3.2 6.4 0.00 0.00 0.00 48 1014.0
20260507213649 13 287 3.2 8.0 0.00 0.00 0.00 47 1013.8
20260507212650 14 295 3.2 9.7 0.00 0.00 0.00 45 1013.6
20260507211648 14 295 3.2 9.7 0.00 0.00 0.00 45 1013.6
20260507210649 14 283 3.2 9.7 0.00 0.00 0.00 45 1013.4
20260507205749 14 290 3.2 11.3 0.00 0.00 0.00 47 1013.4
20260507205650 14 290 3.2 11.3 0.00 0.00 0.00 47 1013.4
20260507204808 14 290 3.2 11.3 0.00 0.00 0.00 47 1013.4
20260507204649 14 290 3.2 11.3 0.00 0.00 0.00 47 1013.4
20260507203648 14 293 3.2 6.4 0.00 0.00 0.00 49 1013.4
20260507202801 13 287 1.6 4.8 0.00 0.00 0.00 47 1013.4
20260507202648 13 287 1.6 4.8 0.00 0.00 0.00 47 1013.4
20260507201800 13 287 1.6 4.8 0.00 0.00 0.00 47 1013.4
20260507201649 13 287 1.6 4.8 0.00 0.00 0.00 47 1013.4
20260507200652 13 290 1.6 6.4 0.00 0.00 0.00 46 1013.6
20260507195740 13 284 3.2 9.7 0.00 0.00 0.00 46 1013.7
20260507195648 13 284 3.2 9.7 0.00 0.00 0.00 46 1013.7
20260507194842 13 284 3.2 9.7 0.00 0.00 0.00 46 1013.7
20260507194651 13 284 3.2 9.7 0.00 0.00 0.00 46 1013.7
20260507193649 13 290 1.6 6.4 0.00 0.00 0.00 45 1013.8
20260507192653 13 283 1.6 6.4 0.00 0.00 0.00 45 1013.7
20260507191729 13 283 1.6 6.4 0.00 0.00 0.00 45 1013.7
20260507191649 13 283 1.6 6.4 0.00 0.00 0.00 45 1013.7
20260507190650 14 291 1.6 4.8 0.00 0.00 0.00 44 1013.4
20260507185734 14 276 1.6 6.4 0.00 0.00 0.00 46 1013.7
20260507185649 14 276 1.6 6.4 0.00 0.00 0.00 46 1013.7
20260507184649 14 276 1.6 6.4 0.00 0.00 0.00 46 1013.7
20260507183650 13 290 1.6 6.4 0.00 0.00 0.00 46 1013.6
20260507182650 14 292 1.6 8.0 0.00 0.00 0.00 44 1013.8
20260507181649 14 292 1.6 8.0 0.00 0.00 0.00 44 1013.8
20260507180649 14 280 1.6 9.7 0.00 0.00 0.00 44 1013.9
20260507175648 14 288 3.2 6.4 0.00 0.00 0.00 45 1013.9
20260507174648 14 288 3.2 6.4 0.00 0.00 0.00 45 1013.9
20260507173651 15 282 3.2 8.0 0.00 0.00 0.00 41 1014.0
20260507172728 15 279 3.2 11.3 0.00 0.00 0.00 46 1014.1
20260507172649 15 279 3.2 11.3 0.00 0.00 0.00 46 1014.1
20260507171647 15 279 3.2 11.3 0.00 0.00 0.00 46 1014.1
20260507170648 15 285 3.2 6.4 0.00 0.00 0.00 44 1014.1
20260507165648 14 263 3.2 11.3 0.00 0.00 0.00 48 1014.2
20260507164648 14 263 3.2 11.3 0.00 0.00 0.00 48 1014.2
20260507163649 14 276 3.2 9.7 0.00 0.00 0.00 47 1014.3
20260507161652 13 250 4.8 12.9 0.00 0.00 0.00 50 1014.4
20260507160648 14 281 3.2 6.4 0.00 0.00 0.00 47 1014.5
20260507155746 14 295 1.6 6.4 0.00 0.00 0.00 53 1014.5
20260507155649 14 295 1.6 6.4 0.00 0.00 0.00 53 1014.5
20260507154810 14 295 1.6 6.4 0.00 0.00 0.00 53 1014.5
20260507154648 14 295 1.6 6.4 0.00 0.00 0.00 53 1014.5
20260507153648 13 256 3.2 9.7 0.00 0.00 0.00 53 1014.5
20260507152650 12 275 1.6 4.8 0.00 0.00 0.00 53 1014.7
20260507151648 12 275 1.6 4.8 0.00 0.00 0.00 53 1014.7
20260507150650 12 283 1.6 4.8 0.00 0.00 0.00 54 1014.7
20260507145648 12 256 1.6 6.4 0.00 0.00 0.00 56 1014.9
20260507144747 12 256 1.6 6.4 0.00 0.00 0.00 56 1014.9
20260507144657 12 256 1.6 6.4 0.00 0.00 0.00 56 1014.9
20260507143728 12 237 3.2 11.3 0.00 0.00 0.00 59 1014.7
20260507143649 12 237 3.2 11.3 0.00 0.00 0.00 59 1014.7
20260507142649 12 237 4.8 11.3 0.00 0.00 0.00 57 1015.0
20260507141647 12 237 4.8 11.3 0.00 0.00 0.00 57 1015.0
20260507140648 12 265 1.6 4.8 0.00 0.00 0.00 63 1015.1
20260507135805 12 239 1.6 8.0 0.00 0.00 0.00 62 1015.4
20260507135653 12 239 1.6 8.0 0.00 0.00 0.00 62 1015.4
20260507134730 12 239 1.6 8.0 0.00 0.00 0.00 62 1015.4
20260507134651 12 239 1.6 8.0 0.00 0.00 0.00 62 1015.4
20260507133650 11 260 1.6 4.8 0.00 0.00 0.00 65 1015.6
20260507132728 11 266 1.6 6.4 0.00 0.00 0.00 67 1015.5
20260507132653 11 266 1.6 6.4 0.00 0.00 0.00 67 1015.5
20260507131810 11 266 1.6 6.4 0.00 0.00 0.00 67 1015.5
20260507131648 11 266 1.6 6.4 0.00 0.00 0.00 67 1015.5
20260507130651 10 255 3.2 6.4 0.00 0.00 0.00 69 1015.6
20260507125647 9 251 1.6 6.4 0.00 0.00 0.00 73 1015.7
20260507124653 9 251 1.6 6.4 0.00 0.00 0.00 73 1015.7
20260507123755 8 242 1.6 4.8 0.00 0.00 0.00 75 1015.4
20260507123649 8 242 1.6 4.8 0.00 0.00 0.00 75 1015.4
20260507123009 7 248 1.6 4.8 0.00 0.00 0.00 75 1015.6
20260507122648 7 248 1.6 4.8 0.00 0.00 0.00 75 1015.6
20260507121649 7 248 1.6 4.8 0.00 0.00 0.00 75 1015.6
20260507120649 7 255 1.6 4.8 0.00 0.00 0.00 77 1015.6
20260507115647 6 247 3.2 6.4 0.00 0.03 0.00 78 1015.6
20260507114652 6 247 3.2 6.4 0.00 0.03 0.00 78 1015.6
20260507113649 5 244 3.2 4.8 0.00 0.03 0.00 81 1015.6
20260507112648 5 239 3.2 6.4 0.00 0.03 0.00 82 1015.5
20260507111654 5 239 3.2 6.4 0.00 0.03 0.00 82 1015.5
20260507110651 5 238 3.2 4.8 0.00 0.03 0.00 83 1015.3
20260507105721 5 243 1.6 3.2 0.00 0.03 0.00 82 1015.3
20260507105647 5 243 1.6 3.2 0.00 0.03 0.00 82 1015.3
20260507104743 5 243 1.6 3.2 0.00 0.03 0.00 82 1015.3
20260507104647 5 243 1.6 3.2 0.00 0.03 0.00 82 1015.3
20260507103650 5 242 3.2 4.8 0.00 0.05 0.00 81 1015.1
20260507102651 5 241 3.2 6.4 0.00 0.13 0.00 81 1014.9
20260507101649 5 241 3.2 6.4 0.00 0.13 0.00 81 1014.9
20260507100649 5 232 3.2 8.0 0.00 0.18 0.00 82 1014.8
20260507095648 5 238 3.2 6.4 0.00 0.30 0.00 81 1015.1
20260507094648 5 238 3.2 6.4 0.00 0.30 0.00 81 1015.1
20260507093648 5 230 3.2 6.4 0.00 0.30 0.00 81 1015.0
20260507092723 5 224 3.2 6.4 0.00 0.33 0.00 81 1015.0
20260507092648 5 224 3.2 6.4 0.00 0.33 0.00 81 1015.0
20260507091653 5 224 3.2 6.4 0.00 0.33 0.00 81 1015.0
20260507090650 5 219 3.2 6.4 0.00 0.36 0.00 80 1015.1
20260507085649 5 215 4.8 8.0 0.00 0.38 0.00 79 1015.2
20260507084722 5 215 4.8 8.0 0.00 0.38 0.00 79 1015.2
20260507084650 5 215 4.8 8.0 0.00 0.38 0.00 79 1015.2
20260507083655 5 212 3.2 6.4 0.00 0.46 0.00 78 1015.2
20260507082740 5 215 3.2 4.8 0.00 0.53 0.00 79 1015.3
20260507082648 5 215 3.2 4.8 0.00 0.53 0.00 79 1015.3
20260507081647 5 215 3.2 4.8 0.00 0.53 0.00 79 1015.3
20260507080648 5 214 3.2 6.4 0.00 0.61 0.00 79 1015.4
20260507075647 5 209 3.2 4.8 0.00 0.66 0.00 79 1015.6
20260507074651 5 209 3.2 4.8 0.00 0.66 0.00 79 1015.6
20260507073651 5 211 3.2 6.4 0.00 0.71 0.00 79 1015.4
20260507072803 5 214 3.2 6.4 0.00 0.76 0.00 77 1015.5
20260507072650 5 214 3.2 6.4 0.00 0.76 0.00 77 1015.5
20260507071650 5 214 3.2 6.4 0.00 0.76 0.00 77 1015.5
20260507070649 5 211 3.2 6.4 0.00 0.79 0.00 76 1015.6
20260507065704 5 190 1.6 3.2 0.00 0.84 0.00 77 1015.6
20260507064648 5 190 1.6 3.2 0.00 0.84 0.00 77 1015.6
20260507063649 5 0 0.0 0.0 0.00 0.89 0.00 78 1016.0
20260507062747 5 0 0.0 0.0 0.00 0.94 0.00 76 1016.0
20260507062648 5 0 0.0 0.0 0.00 0.94 0.00 76 1016.0
20260507061647 5 0 0.0 0.0 0.00 0.94 0.00 76 1016.0
20260507060650 5 0 0.0 0.0 0.00 0.97 0.00 75 1016.2
20260507055849 6 0 0.0 0.0 0.00 0.99 0.00 74 1016.2
20260507055658 6 0 0.0 0.0 0.00 0.99 0.00 74 1016.2
20260507054730 6 0 0.0 0.0 0.00 0.99 0.00 74 1016.2
20260507054654 6 0 0.0 0.0 0.00 0.99 0.00 74 1016.2
20260507053648 6 0 0.0 0.0 0.00 1.02 0.00 72 1016.2
20260507052648 6 0 0.0 0.0 0.00 1.07 0.00 71 1016.2
20260507051654 6 0 0.0 0.0 0.00 1.07 0.00 71 1016.2
20260507050647 6 0 0.0 0.0 0.00 1.12 0.00 73 1016.3
20260507045647 6 0 0.0 0.0 0.00 1.17 0.00 74 1016.6
20260507044649 6 0 0.0 0.0 0.00 1.17 0.00 74 1016.6
20260507043649 7 0 0.0 0.0 0.00 1.19 0.00 73 1016.7
20260507042654 7 0 0.0 0.0 0.00 1.24 0.00 73 1016.7
20260507041647 7 0 0.0 0.0 0.00 1.24 0.00 73 1016.7
20260507040647 7 72 0.0 1.6 0.00 1.27 0.00 70 1016.9